Weather History for KCCU - November, 2012

Change the Weather History Date:

Wednesday, November 7, 2012

  Actual Average (KLXV) Record (KLXV)
Temperature  
Mean Temperature 40 °F -  
Max Temperature 46 °F 40 °F - ()
Min Temperature 35 °F 16 °F - ()
Degree Days  
Heating Degree Days 24 37  
Month to date heating degree days 250  
Since 1 July heating degree days 2439  
Cooling Degree Days 0 0  
Month to date cooling degree days 0  
Year to date cooling degree days 0  
Moisture  
Dew Point 7 °F    
Average Humidity 27    
Maximum Humidity 38    
Minimum Humidity 14    
Precipitation  
Precipitation 0.00 in 0.03 in - ()
Month to date precipitation 0.20  
Year to date precipitation 11.14  
Sea Level Pressure  
Sea Level Pressure 30.41 in    
Wind  
Wind Speed 10 mph (SW)    
Max Wind Speed 21 mph    
Max Gust Speed 30 mph    
Visibility 10 miles    
Events      
T = Trace of Precipitation, MM = Missing Value Source: NWS Daily Summary

Daily Weather History Graph

Daily Weather History Graph

Search for Another Location

Airport or City:

Trip Planner

Search our weather history database for the weather conditions in past years. The results will help you decide how hot, cold, wet, or windy it might be!

Date:

Astronomy

Nov. 07, 2012 Rise Set
Actual Time 6:40 AM MST 4:56 PM MST
Civil Twilight 6:11 AM MST 5:24 PM MST
Nautical Twilight 5:39 AM MST 5:56 PM MST
Astronomical Twilight 5:08 AM MST 6:27 PM MST
Moon No Moon Rise 1:04 PM MST (11/7)
Length of Visible Light 11h 12m
Length of Day
10h 15m
Last Quarter, 42% of the Moon is Illuminated
Nov 7
Last Quarter
Nov 13
New
Nov 20
First Quarter
Nov 28
Full
Dec 6
Last Quarter

Hourly Weather History & Observations

Time (MST) Temp. Windchill Dew Point Humidity Pressure Visibility Wind Dir Wind Speed Gust Speed Precip Events Conditions
12:16 AM 37.4 °F 32.8 °F 14.0 °F 38% 30.53 in 10.0 mi SW 5.8 mph - N/A   Clear
12:36 AM 37.4 °F 32.1 °F 12.2 °F 36% 30.53 in 10.0 mi SW 6.9 mph - N/A   Clear
12:56 AM 37.4 °F 32.1 °F 12.2 °F 36% 30.52 in 10.0 mi SSW 6.9 mph - N/A   Clear
1:16 AM 35.6 °F 28.0 °F 12.2 °F 38% 30.51 in 10.0 mi WSW 10.4 mph - N/A   Clear
1:56 AM 37.4 °F 32.1 °F 10.4 °F 33% 30.51 in 10.0 mi WSW 6.9 mph - N/A   Clear
2:16 AM 37.4 °F 34.9 °F 10.4 °F 33% 30.51 in 10.0 mi WSW 3.5 mph - N/A   Clear
2:36 AM 37.4 °F 33.8 °F 6.8 °F 28% 30.50 in 10.0 mi SSW 4.6 mph - N/A   Clear
2:56 AM 37.4 °F 33.8 °F 5.0 °F 26% 30.49 in 10.0 mi SSW 4.6 mph - N/A   Clear
3:16 AM 37.4 °F 29.8 °F 6.8 °F 28% 30.49 in 10.0 mi South 11.5 mph - N/A   Clear
3:36 AM 37.4 °F 30.8 °F 5.0 °F 26% 30.48 in 10.0 mi South 9.2 mph - N/A   Clear
3:56 AM 37.4 °F 32.8 °F 3.2 °F 24% 30.47 in 10.0 mi SSW 5.8 mph - N/A   Clear
4:16 AM 37.4 °F 33.8 °F 3.2 °F 24% 30.47 in 10.0 mi SSW 4.6 mph - N/A   Clear
4:36 AM 37.4 °F 32.1 °F 1.4 °F 22% 30.48 in 10.0 mi SSW 6.9 mph - N/A   Clear
4:56 AM 37.4 °F 29.8 °F 1.4 °F 22% 30.48 in 10.0 mi South 11.5 mph - N/A   Clear
5:16 AM 37.4 °F 28.5 °F 3.2 °F 24% 30.48 in 10.0 mi South 15.0 mph - N/A   Clear
5:36 AM 39.2 °F 30.2 °F 1.4 °F 21% 30.47 in 10.0 mi South 17.3 mph - N/A   Clear
5:56 AM 37.4 °F 28.2 °F 3.2 °F 24% 30.47 in 10.0 mi South 16.1 mph - N/A   Clear
6:16 AM 37.4 °F 28.9 °F 1.4 °F 22% 30.47 in 10.0 mi South 13.8 mph - N/A   Clear
6:36 AM 37.4 °F 28.2 °F 1.4 °F 22% 30.47 in 10.0 mi South 16.1 mph - N/A   Clear
6:56 AM 37.4 °F 31.4 °F -2.2 °F 19% 30.47 in 10.0 mi SSW 8.1 mph 16.1 mph N/A   Clear
7:16 AM 41.0 °F 32.8 °F -0.4 °F 18% 30.47 in 10.0 mi South 16.1 mph 19.6 mph N/A   Clear
7:36 AM 41.0 °F 32.2 °F -0.4 °F 18% 30.47 in 10.0 mi South 18.4 mph - N/A   Clear
7:56 AM 44.6 °F 37.2 °F -0.4 °F 15% 30.47 in 10.0 mi South 17.3 mph - N/A   Clear
8:16 AM 44.6 °F 38.4 °F -2.2 °F 14% 30.47 in 10.0 mi South 12.7 mph - N/A   Clear
8:36 AM 42.8 °F 40.1 °F 1.4 °F 18% 30.47 in 10.0 mi SW 4.6 mph 17.3 mph N/A   Clear
8:56 AM 37.4 °F 28.9 °F 10.4 °F 33% 30.46 in 10.0 mi West 13.8 mph - N/A   Clear
9:16 AM 37.4 °F 28.9 °F 10.4 °F 33% 30.46 in 10.0 mi West 13.8 mph - N/A   Clear
9:36 AM 41.0 °F 34.3 °F 10.4 °F 29% 30.46 in 10.0 mi West 11.5 mph - N/A   Clear
9:56 AM 41.0 °F 38.0 °F 10.4 °F 29% 30.46 in 10.0 mi WSW 4.6 mph - N/A   Clear
10:16 AM 42.8 °F 39.3 °F 10.4 °F 27% 30.46 in 10.0 mi WSW 5.8 mph - N/A   Clear
10:36 AM 44.6 °F 40.7 °F 6.8 °F 21% 30.45 in 10.0 mi SSW 6.9 mph - N/A   Clear
10:56 AM 44.6 °F 42.2 °F 6.8 °F 21% 30.44 in 10.0 mi SW 4.6 mph - N/A   Clear
11:16 AM 44.6 °F 38.8 °F 8.6 °F 23% 30.43 in 10.0 mi West 11.5 mph - N/A   Clear
11:36 AM 46.4 °F 41.9 °F 1.4 °F 16% 30.42 in 10.0 mi SW 9.2 mph - N/A   Clear
11:56 AM 46.4 °F 41.9 °F 3.2 °F 17% 30.41 in 10.0 mi WSW 9.2 mph - N/A   Clear
12:16 PM 46.4 °F 40.1 °F 1.4 °F 16% 30.40 in 10.0 mi West 15.0 mph 19.6 mph N/A   Clear
12:36 PM 46.4 °F 41.9 °F 3.2 °F 17% 30.39 in 10.0 mi WSW 9.2 mph 18.4 mph N/A   Clear
12:56 PM 44.6 °F 36.9 °F 8.6 °F 23% 30.38 in 10.0 mi West 18.4 mph - N/A   Clear
1:16 PM 44.6 °F 39.2 °F 8.6 °F 23% 30.38 in 10.0 mi West 10.4 mph - N/A   Clear
1:36 PM 44.6 °F 37.2 °F 8.6 °F 23% 30.37 in 10.0 mi West 17.3 mph - N/A   Clear
1:56 PM 46.4 °F 39.8 °F 5.0 °F 18% 30.36 in 10.0 mi West 16.1 mph 21.9 mph N/A   Clear
2:16 PM 46.4 °F 39.0 °F 3.2 °F 17% 30.36 in 10.0 mi West 19.6 mph 29.9 mph N/A   Clear
2:36 PM 44.6 °F 37.8 °F 3.2 °F 18% 30.36 in 10.0 mi West 15.0 mph 25.3 mph N/A   Clear
2:56 PM 46.4 °F 41.1 °F 1.4 °F 16% 30.36 in 10.0 mi WSW 11.5 mph 24.2 mph N/A   Clear
3:16 PM 46.4 °F 40.7 °F 1.4 °F 16% 30.36 in 10.0 mi WSW 12.7 mph 20.7 mph N/A   Clear
3:36 PM 46.4 °F 42.9 °F 1.4 °F 16% 30.36 in 10.0 mi SSW 6.9 mph 24.2 mph N/A   Clear
3:56 PM 44.6 °F 38.1 °F 1.4 °F 17% 30.36 in 10.0 mi WSW 13.8 mph 20.7 mph N/A   Clear
4:16 PM 44.6 °F 37.4 °F 5.0 °F 20% 30.36 in 10.0 mi West 16.1 mph 19.6 mph N/A   Clear
4:36 PM 41.0 °F 33.9 °F 6.8 °F 24% 30.35 in 10.0 mi West 12.7 mph - N/A   Clear
4:56 PM 41.0 °F 33.1 °F 8.6 °F 26% 30.35 in 10.0 mi West 15.0 mph 19.6 mph N/A   Clear
5:16 PM 41.0 °F 31.9 °F 10.4 °F 29% 30.35 in 10.0 mi West 19.6 mph 23.0 mph N/A   Clear
5:36 PM 39.2 °F 29.3 °F 12.2 °F 33% 30.35 in 10.0 mi West 20.7 mph - N/A   Clear
5:56 PM 37.4 °F 27.2 °F 10.4 °F 33% 30.36 in 10.0 mi West 19.6 mph - N/A   Clear
6:16 PM 37.4 °F 29.8 °F 14.0 °F 38% 30.35 in 10.0 mi WSW 11.5 mph 19.6 mph N/A   Clear
6:36 PM 37.4 °F 29.3 °F 14.0 °F 38% 30.35 in 10.0 mi West 12.7 mph 23.0 mph N/A   Clear
6:56 PM 37.4 °F 26.9 °F 12.2 °F 36% 30.35 in 10.0 mi West 20.7 mph - N/A   Clear
7:16 PM 35.6 °F 28.0 °F 12.2 °F 38% 30.34 in 10.0 mi WSW 10.4 mph 19.6 mph N/A   Clear
7:36 PM 37.4 °F 29.8 °F 12.2 °F 36% 30.33 in 10.0 mi WSW 11.5 mph 16.1 mph N/A   Clear
7:56 PM 37.4 °F 30.3 °F 12.2 °F 36% 30.33 in 10.0 mi SW 10.4 mph 17.3 mph N/A   Clear
8:16 PM 37.4 °F 30.8 °F 12.2 °F 36% 30.33 in 10.0 mi WSW 9.2 mph - N/A   Clear
8:36 PM 37.4 °F 30.8 °F 12.2 °F 36% 30.34 in 10.0 mi WSW 9.2 mph - N/A   Clear
8:56 PM 35.6 °F 28.0 °F 12.2 °F 38% 30.34 in 10.0 mi WSW 10.4 mph - N/A   Clear
9:16 PM 35.6 °F 27.5 °F 10.4 °F 35% 30.33 in 10.0 mi SW 11.5 mph 16.1 mph N/A   Clear
9:36 PM 35.6 °F 25.9 °F 10.4 °F 35% 30.33 in 10.0 mi WSW 16.1 mph 21.9 mph N/A   Clear
9:56 PM 35.6 °F 26.6 °F 12.2 °F 38% 30.33 in 7.0 mi WSW 13.8 mph - N/A   Clear
10:16 PM 35.6 °F 25.9 °F 10.4 °F 35% 30.32 in 10.0 mi WSW 16.1 mph - N/A   Clear
10:36 PM 35.6 °F 26.6 °F 8.6 °F 33% 30.31 in 10.0 mi SW 13.8 mph 18.4 mph N/A   Clear
10:56 PM 35.6 °F 26.6 °F 10.4 °F 35% 30.31 in 10.0 mi SW 13.8 mph 18.4 mph N/A   Clear
11:16 PM 35.6 °F 27.5 °F 10.4 °F 35% 30.31 in 10.0 mi SW 11.5 mph - N/A   Clear
11:36 PM 35.6 °F 27.5 °F 10.4 °F 35% 30.31 in 10.0 mi SW 11.5 mph - N/A   Clear
11:56 PM 35.6 °F 28.6 °F 8.6 °F 33% 30.31 in 10.0 mi SSW 9.2 mph 16.1 mph N/A   Clear